sat.trackr.live / text

‹ back to catalog

INMARSAT 5-F3

NORAD 40882 · 2015-042A

PAYLOAD ACTIVE UNKNOWN

§ Identity

Operator
Country
IM
Launch date
2015-08-28
Launch site
TYMSC
Launch vehicle
Mass (kg)
RCS (m²)
49.81

Purposes: comms

External: N2YO · Heavens-Above · Gunter

§ Orbital elements

Epoch: 2026-05-24T18:19:49.746144Z

Period
1,436.09 min
Inclination
0.0165°
Eccentricity
0.0000409
Mean motion
1.00272017 rev/d
Perigee alt
35,784.8 km
Apogee alt
35,788.3 km
Semi-major
42,164.7 km
B*
0.0000e+0
RAAN
337.5643°
Arg perigee
68.4838°
Mean anomaly
290.8572°
Rev number
3,933

§ Raw data

INMARSAT 5-F31 40882U 15042A   26144.76377021  .00000047  00000+0  00000+0 0  99932 40882   0.0165 337.5643 0000409  68.4838 290.8572  1.00272017 39338

JSON: /api/v1/satellites/40882 · /tle

For live sub-satellite position, see the globe view (requires WebGL).

§ Visibility from observer

Set your observer location to see the next 7 days of passes ≥ 10°. The values pass through the URL so the page stays shareable.

No JS? Fill the form by hand. The geolocation button needs JavaScript.